Time,TemperatureF,DewpointF,PressureIn,WindDirection,WindDirectionDegrees,WindSpeedMPH,WindSpeedGustMPH,Humidity,HourlyPrecipIn,Conditions,Clouds,dailyrainin,SoftwareType,DateUTC
2013-09-06 01:52:00,56.0,42.0,-100.00,North,-999,-999.0,-999.0,59,-99.99,,,-99.99,,2013-09-06 08:52:00,
2013-09-06 02:01:00,56.0,42.0,-100.00,North,-999,-999.0,-999.0,59,-99.99,,,-99.99,,2013-09-06 09:01:00,
2013-09-06 02:11:00,56.0,42.0,-100.00,North,-999,-999.0,-999.0,59,-99.99,,,-99.99,,2013-09-06 09:11:00,
2013-09-06 02:53:00,54.0,42.0,-100.00,North,-999,-999.0,-999.0,64,-99.99,,,-99.99,,2013-09-06 09:53:00,
2013-09-06 03:03:00,54.0,42.0,-100.00,North,-999,-999.0,-999.0,64,-99.99,,,-99.99,,2013-09-06 10:03:00,
2013-09-06 03:12:00,54.0,42.0,-100.00,North,-999,-999.0,-999.0,64,-99.99,,,-99.99,,2013-09-06 10:12:00,
2013-09-06 03:43:00,54.0,44.0,-100.00,North,-999,-999.0,-999.0,69,-99.99,,,-99.99,,2013-09-06 10:43:00,
2013-09-06 03:53:00,53.0,42.0,-100.00,North,-999,-999.0,-999.0,67,-99.99,,,-99.99,,2013-09-06 10:53:00,
2013-09-06 04:02:00,53.0,42.0,-100.00,North,-999,-999.0,-999.0,67,-99.99,,,-99.99,,2013-09-06 11:02:00,
2013-09-06 04:11:00,53.0,42.0,-100.00,North,-999,-999.0,-999.0,67,-99.99,,,-99.99,,2013-09-06 11:11:00,
2013-09-06 07:52:00,51.0,43.0,-100.00,North,-999,-999.0,-999.0,73,-99.99,,,-99.99,,2013-09-06 14:52:00,
2013-09-06 08:01:00,51.0,43.0,-100.00,North,-999,-999.0,-999.0,73,-99.99,,,-99.99,,2013-09-06 15:01:00,
2013-09-06 08:31:00,73.0,48.0,-100.00,North,-999,-999.0,-999.0,41,-99.99,,,-99.99,,2013-09-06 15:31:00,
2013-09-06 08:43:00,62.0,47.0,-100.00,North,-999,-999.0,-999.0,59,-99.99,,,-99.99,,2013-09-06 15:43:00,
2013-09-06 09:13:00,73.0,48.0,-100.00,North,-999,-999.0,-999.0,41,-99.99,,,-99.99,,2013-09-06 16:13:00,
2013-09-06 09:24:00,73.0,48.0,-100.00,North,-999,-999.0,-999.0,41,-99.99,,,-99.99,,2013-09-06 16:24:00,
2013-09-06 09:53:00,89.0,49.0,-100.00,North,-999,-999.0,-999.0,25,-99.99,,,-99.99,,2013-09-06 16:53:00,
2013-09-06 10:03:00,89.0,49.0,-100.00,North,-999,-999.0,-999.0,25,-99.99,,,-99.99,,2013-09-06 17:03:00,
2013-09-06 10:13:00,89.0,49.0,-100.00,North,-999,-999.0,-999.0,25,-99.99,,,-99.99,,2013-09-06 17:13:00,
2013-09-06 10:24:00,91.0,46.0,-100.00,North,-999,-999.0,-999.0,21,-99.99,,,-99.99,,2013-09-06 17:24:00,
2013-09-06 10:34:00,91.0,46.0,-100.00,North,-999,-999.0,-999.0,21,-99.99,,,-99.99,,2013-09-06 17:34:00,
2013-09-06 10:43:00,91.0,46.0,-100.00,North,-999,-999.0,-999.0,21,-99.99,,,-99.99,,2013-09-06 17:43:00,
2013-09-06 10:53:00,92.0,48.0,-100.00,North,-999,-999.0,-999.0,22,-99.99,,,-99.99,,2013-09-06 17:53:00,
2013-09-06 11:01:00,92.0,48.0,-100.00,North,-999,-999.0,-999.0,22,-99.99,,,-99.99,,2013-09-06 18:01:00,
2013-09-06 11:42:00,92.0,46.0,-100.00,North,-999,-999.0,-999.0,21,-99.99,,,-99.99,,2013-09-06 18:42:00,
2013-09-06 11:52:00,91.0,47.0,-100.00,North,-999,-999.0,-999.0,22,-99.99,,,-99.99,,2013-09-06 18:52:00,
2013-09-06 12:02:00,91.0,47.0,-100.00,North,-999,-999.0,-999.0,22,-99.99,,,-99.99,,2013-09-06 19:02:00,
2013-09-06 12:12:00,91.0,47.0,-100.00,North,-999,-999.0,-999.0,22,-99.99,,,-99.99,,2013-09-06 19:12:00,
2013-09-06 12:43:00,92.0,48.0,-100.00,North,-999,-999.0,-999.0,22,-99.99,,,-99.99,,2013-09-06 19:43:00,
2013-09-06 12:52:00,92.0,48.0,-100.00,North,-999,-999.0,-999.0,22,-99.99,,,-99.99,,2013-09-06 19:52:00,
2013-09-06 13:02:00,92.0,48.0,-100.00,North,-999,-999.0,-999.0,22,-99.99,,,-99.99,,2013-09-06 20:02:00,
2013-09-06 13:11:00,92.0,48.0,-100.00,North,-999,-999.0,-999.0,22,-99.99,,,-99.99,,2013-09-06 20:11:00,
2013-09-06 13:52:00,93.0,48.0,-100.00,North,-999,-999.0,-999.0,22,-99.99,,,-99.99,,2013-09-06 20:52:00,
2013-09-06 14:01:00,93.0,48.0,-100.00,North,-999,-999.0,-999.0,22,-99.99,,,-99.99,,2013-09-06 21:01:00,
2013-09-06 14:12:00,93.0,48.0,-100.00,North,-999,-999.0,-999.0,22,-99.99,,,-99.99,,2013-09-06 21:12:00,
2013-09-06 14:43:00,95.0,48.0,-100.00,North,-999,-999.0,-999.0,20,-99.99,,,-99.99,,2013-09-06 21:43:00,
2013-09-06 15:13:00,95.0,48.0,-100.00,North,-999,-999.0,-999.0,20,-99.99,,,-99.99,,2013-09-06 22:13:00,
2013-09-06 15:44:00,94.0,47.0,-100.00,North,-999,-999.0,-999.0,20,-99.99,,,-99.99,,2013-09-06 22:44:00,
2013-09-06 15:53:00,94.0,47.0,-100.00,North,-999,-999.0,-999.0,20,-99.99,,,-99.99,,2013-09-06 22:53:00,
2013-09-06 16:03:00,94.0,47.0,-100.00,North,-999,-999.0,-999.0,20,-99.99,,,-99.99,,2013-09-06 23:03:00,
2013-09-06 16:12:00,94.0,47.0,-100.00,North,-999,-999.0,-999.0,20,-99.99,,,-99.99,,2013-09-06 23:12:00,
2013-09-06 16:43:00,94.0,45.0,-100.00,North,-999,-999.0,-999.0,19,-99.99,,,-99.99,,2013-09-06 23:43:00,
2013-09-06 16:52:00,91.0,44.0,-100.00,North,-999,-999.0,-999.0,20,-99.99,,,-99.99,,2013-09-06 23:52:00,
2013-09-06 17:01:00,91.0,44.0,-100.00,North,-999,-999.0,-999.0,20,-99.99,,,-99.99,,2013-09-07 00:01:00,
2013-09-06 17:12:00,91.0,44.0,-100.00,North,-999,-999.0,-999.0,20,-99.99,,,-99.99,,2013-09-07 00:12:00,
2013-09-06 18:12:00,91.0,43.0,-100.00,North,-999,-999.0,-999.0,19,-99.99,,,-99.99,,2013-09-07 01:12:00,
2013-09-06 18:42:00,88.0,44.0,-100.00,North,-999,-999.0,-999.0,22,-99.99,,,-99.99,,2013-09-07 01:42:00,
2013-09-06 18:53:00,86.0,44.0,-100.00,North,-999,-999.0,-999.0,23,-99.99,,,-99.99,,2013-09-07 01:53:00,
2013-09-06 19:02:00,86.0,44.0,-100.00,North,-999,-999.0,-999.0,23,-99.99,,,-99.99,,2013-09-07 02:02:00,
2013-09-06 19:12:00,86.0,44.0,-100.00,North,-999,-999.0,-999.0,23,-99.99,,,-99.99,,2013-09-07 02:12:00,
2013-09-06 19:43:00,82.0,44.0,-100.00,North,-999,-999.0,-999.0,26,-99.99,,,-99.99,,2013-09-07 02:43:00,
2013-09-06 19:52:00,77.0,42.0,-100.00,North,-999,-999.0,-999.0,29,-99.99,,,-99.99,,2013-09-07 02:52:00,
2013-09-06 20:02:00,77.0,42.0,-100.00,North,-999,-999.0,-999.0,29,-99.99,,,-99.99,,2013-09-07 03:02:00,
2013-09-06 20:11:00,77.0,42.0,-100.00,North,-999,-999.0,-999.0,29,-99.99,,,-99.99,,2013-09-07 03:11:00,
2013-09-06 20:45:00,73.0,42.0,-100.00,North,-999,-999.0,-999.0,33,-99.99,,,-99.99,,2013-09-07 03:45:00,
2013-09-06 21:14:00,69.0,41.0,-100.00,North,-999,-999.0,-999.0,36,-99.99,,,-99.99,,2013-09-07 04:14:00,
2013-09-06 22:13:00,64.0,39.0,-100.00,North,-999,-999.0,-999.0,40,-99.99,,,-99.99,,2013-09-07 05:13:00,
2013-09-06 23:13:00,59.0,38.0,-100.00,North,-999,-999.0,-999.0,45,-99.99,,,-99.99,,2013-09-07 06:13:00,
2013-09-06 23:21:00,58.0,38.0,-100.00,North,-999,-999.0,-999.0,47,-99.99,,,-99.99,,2013-09-07 06:21:00,
2013-09-06 23:31:00,56.0,37.0,-100.00,North,-999,-999.0,427.0,48,-99.99,,,-99.99,,2013-09-07 06:31:00,
2013-09-06 23:32:00,58.0,38.0,-100.00,North,-999,-999.0,-999.0,47,-99.99,,,-99.99,,2013-09-07 06:32:00,
2013-09-06 23:43:00,58.0,38.0,-100.00,North,-999,-999.0,-999.0,47,-99.99,,,-99.99,,2013-09-07 06:43:00,
2013-09-06 23:52:00,56.0,37.0,-100.00,North,-999,-999.0,-999.0,48,-99.99,,,-99.99,,2013-09-07 06:52:00,